www.pogodaiklimat.ru

Погода и климат >> Архив погоды >> Россия >> Чукотка >> Айон Остров


ПОГОДА на Айон Острове

  • Прогноз погоды на Айон Острове
  • Монитор погоды на Айон Острове
  • Климат города

АРХИВ ПОГОДЫ на Айон Острове

Время (UTC), дата Ветер
(напр.,м/с)
 
Видим.   Явления Облачность Т
(С)
Тd
(С)
f
(%)
Тe
(С)
Тes
(С)
Комфортность P
(гПа)
Po
(гПа)
Тmin
(С)
Tmax
(С)
R
(мм)
R24
(мм)
S
(см)
00 14.01 ЮЗ 2-2
{2}
20 км 10/10 450 м
[Sc]
-27.9 -30.4 79 -35 -35 опасность
обморожения
1015.6 1013.7 -28.3
03 14.01 ЮЗ 2-3
{3}
20 км 10/10 480 м
[Sc]
-26.5 -28.9 80 -33 -33 опасность
обморожения
1013.9 1012.0
06 14.01 З 3-3
{4}
20 км 10/4 300 м
[Sc Ac und]
-25.5 -27.8 81 -34 -34 опасность
обморожения
1012.5 1010.6
09 14.01 СЗ 3-4
{4}
20 км 10/0
[Ac und]
-24.3 -26.3 83 -33 -33 опасность
обморожения
1011.0 1009.1 -24.3
12 14.01 СЗ 4-5
{6}
20 км 10/0
[Ac und]
-23.8 -25.9 83 -34 -34 опасность
обморожения
1009.4 1007.5
15 14.01 СЗ 3-3
{5}
20 км 4/0
[Ac trans]
-26.3 -28.5 82 -35 -35 опасность
обморожения
1008.0 1006.1
18 14.01 СЗ 6-7
{7}
20 км позёмок {метель} 10/0
[Ac und]
-24.9 -27.1 82 -37 -37 опасность
обморожения
1006.4 1004.5
21 14.01 З 6-6
{7}
20 км позёмок {метель} 6/0
[Ac trans]
-24.6 -26.8 82 -37 -37 опасность
обморожения
1006.0 1004.1 -26.8 7
00 15.01 СЗ 6-7
{7}
20 км позёмок {метель} 9/0
[Ac trans]
-23.3 -25.2 84 -35 -35 опасность
обморожения
1005.2 1003.3
03 15.01 СЗ 6-8
{9}
20 км позёмок {метель} 10/0
[Ac und]
-23.3 -25.3 84 -35 -35 опасность
обморожения
1004.6 1002.7
06 15.01 СЗ 7-8
{10}
20 км позёмок {метель} 4/0
[Ac trans]
-23.5 -25.6 83 -36 -36 опасность
обморожения
1004.3 1002.4
09 15.01 СЗ 7-9
{10}
20 км позёмок {метель} 3/0
[Ac trans]
-23.8 -25.9 83 -37 -37 опасность
обморожения
1004.3 1002.4 -23.1
12 15.01 З 7-9
{11}
20 км позёмок {метель} 8/0
[Ac trans]
-22.7 -24.7 84 -35 -35 опасность
обморожения
1004.3 1002.4
15 15.01 СЗ 9-11
{12}
4000 м метель 10/0
[Ac und]
-22.3 -24.1 85 -36 -36 опасность
обморожения
1003.2 1001.3
18 15.01 СЗ 9-11
{13}
4000 м метель 10/0
[Ac und]
-22.0 -23.9 84 -36 -36 опасность
обморожения
1002.6 1000.7
21 15.01 СЗ 8-10
{12}
10 км позёмок {метель} 10/0
[Ac und]
-22.0 -23.9 84 -35 -35 опасность
обморожения
1002.9 1001.0 -23.8 8
00 16.01 СЗ 7-9
{11}
10 км позёмок {метель} 10/0
[As trans]
-22.2 -24.0 85 -35 -35 опасность
обморожения
1002.9 1001.0
03 16.01 СЗ 7-8
{9}
10 км позёмок {метель} 10/0
[As trans]
-22.3 -24.3 84 -35 -35 опасность
обморожения
1002.4 1000.5
06 16.01 СЗ 4-5
{9}
20 км {метель} 10/0
[As trans]
-22.9 -24.9 84 -32 -32 опасность
обморожения
1002.9 1001.0
09 16.01 З 3-4
{6}
20 км 10/0
[As op]
-23.2 -25.2 84 -31 -31 опасность
обморожения
1003.4 1001.5 -22.0
12 16.01 З 6-7
{7}
20 км позёмок {метель} 10/0
[As op]
-23.0 -25.0 84 -35 -35 опасность
обморожения
1003.5 1001.6
15 16.01 З 7-8
{8}
20 км позёмок {метель} 10/0
[As op]
-23.7 -25.8 83 -36 -36 опасность
обморожения
1003.7 1001.8
18 16.01 З 7-9
{10}
4000 м слабый снег {метель} 10/0
[As op]
-24.0 -25.8 85 -37 -37 опасность
обморожения
1004.4 1002.5
21 16.01 З 8-10
{10}
4000 м слабый снег {метель} 10/0
[As op]
-24.7 -26.5 85 -39 -39 опасность
обморожения
1005.4 1003.5 -24.7 0.5 8
00 17.01 З 10-12
{13}
4000 м метель {снег} 10/0
[Ac und]
-24.9 -27.1 82 -40 -40 опасность
обморожения
1006.4 1004.5 -25.1
03 17.01 З 9-11
{12}
4000 м метель 10/0
[Ac und]
-25.6 -28.0 80 -40 -40 опасность
обморожения
1007.4 1005.5
06 17.01 З 8-10
{12}
10 км позёмок {метель} 10/0
[Ac und]
-26.1 -28.4 81 -40 -40 опасность
обморожения
1008.6 1006.7
09 17.01 З 8-9
{11}
20 км позёмок {метель} 10/0
[Ac und]
-26.4 -28.8 80 -41 -41 опасность
обморожения
1009.8 1007.9 -24.7 0.2
12 17.01 З 7-8
{9}
20 км позёмок {метель} 8/0
[Ac trans]
-26.8 -29.3 79 -40 -40 опасность
обморожения
1010.9 1009.0
15 17.01 З 5-6
{8}
20 км позёмок {метель} 4/0
[Ac trans]
-27.8 -30.5 78 -40 -40 опасность
обморожения
1011.1 1009.2
18 17.01 З 7-9
{9}
20 км позёмок {метель} 6/0
[Ac trans]
-27.3 -29.8 79 -41 -41 опасность
обморожения
1012.0 1010.1
21 17.01 ЮЗ 3-4
{9}
20 км {метель} 9/0
[Ac trans]
-27.6 -30.2 78 -37 -37 опасность
обморожения
1013.4 1011.5 -28.2 8
00 18.01 З 4-5
{6}
20 км {метель} 10/0
[Ac und]
-27.4 -30.0 78 -38 -38 опасность
обморожения
1014.1 1012.2
03 18.01 З 4-5
{6}
20 км 10/0
[Ac und]
-28.3 -31.0 78 -39 -39 опасность
обморожения
1015.1 1013.2
06 18.01 ЮЗ 4-5
{6}
20 км 3/0
[Ac trans]
-32.6 -35.8 73 -44 -44 опасность
обморожения
1016.6 1014.6
09 18.01 ЮЗ 4-4
{6}
20 км ясно -32.3 -35.6 72 -44 -44 опасность
обморожения
1017.6 1015.6 -27.3
12 18.01 Ю 4-5
{6}
20 км ясно -36.7 -40.4 68 -49 -49 опасность
обморожения
1018.8 1016.8
15 18.01 Ю 5-6
{6}
20 км ясно -37.6 -41.5 67 -52 -52 опасность
обморожения
1019.1 1017.0
18 18.01 Ю 5-5
{6}
20 км ясно -36.6 -40.2 69 -51 -51 опасность
обморожения
1019.8 1017.8
21 18.01 Ю 4-5
{6}
20 км ясно -36.2 -39.8 69 -49 -49 опасность
обморожения
1020.5 1018.5 -38.0 8
00 19.01 Ю 5-6
{6}
20 км ясно -36.1 -39.6 70 -50 -50 опасность
обморожения
1021.3 1019.3
03 19.01 ЮЗ 5-5
{6}
20 км 3/0
[Ci fib]
-33.6 -36.9 72 -47 -47 опасность
обморожения
1022.0 1020.0
06 19.01 Ю 4-5
{6}
20 км ясно -36.4 -40.0 69 -49 -49 опасность
обморожения
1022.8 1020.8
09 19.01 Ю 4-5
{6}
20 км ясно -35.8 -39.4 69 -48 -48 опасность
обморожения
1023.6 1021.6 -31.0
12 19.01 Ю 7-8
{9}
20 км позёмок {метель} ясно -34.3 -37.6 72 -50 -50 опасность
обморожения
1024.1 1022.1
15 19.01 Ю 8-8
{9}
20 км позёмок {метель} ясно -34.6 -38.0 71 -51 -51 опасность
обморожения
1024.4 1022.4
18 19.01 Ю 7-8
{9}
20 км позёмок {метель} ясно -35.4 -39.1 69 -52 -52 опасность
обморожения
1025.2 1023.2
21 19.01 Ю 8-8
{9}
20 км позёмок {метель} ясно -34.6 -38.2 70 -51 -51 опасность
обморожения
1025.7 1023.7 -36.2 8
00 20.01 Ю 7-7
{8}
20 км позёмок {метель} ясно -36.3 -39.9 69 -53 -53 опасность
обморожения
1026.7 1024.7 -36.3
03 20.01 Ю 7-8
{8}
20 км позёмок {метель} ясно -35.4 -38.9 70 -52 -52 опасность
обморожения
1027.3 1025.3
06 20.01 Ю 6-6
{8}
20 км позёмок {метель} ясно -33.9 -37.5 70 -49 -49 опасность
обморожения
1028.7 1026.7
09 20.01 Ю 3-4
{6}
20 км {метель} ясно -34.2 -37.7 70 -45 -45 опасность
обморожения
1030.2 1028.2 -31.1
12 20.01 ЮЗ 2-3
{6}
20 км {метель} ясно -35.8 -39.5 69 -44 -44 опасность
обморожения
1031.7 1029.7
15 20.01 штиль 0
{5}
20 км ясно -37.4 -41.0 69 -37 -37 опасность
обморожения
1032.5 1030.5
18 20.01 ЮВ 2-3
{3}
20 км ясно -37.1 -40.9 68 -46 -46 опасность
обморожения
1033.0 1031.0
21 20.01 СВ 2-2
{4}
20 км ясно -36.3 -40.1 68 -45 -45 опасность
обморожения
1033.8 1031.8 -38.3 8

 

Местоположение метеостанции Айон Остров (Чукотка, Россия): широта 69.93 долгота 167.90 высота над уровнем моря 14 м.

В архиве по умолчанию представлена погода на Айон Острове за последнюю неделю. Архивные данные за месяц целиком и за предыдущие месяцы, начиная с января 2011 года, Вы можете получить, выбрав интересующий диапазон дат из раскрывающегося списка и нажав кнопку "Ввод!".

Внимание! Время в таблицах - всемирное. Для получения местного времени необходимо прибавить поправку, которая на Айон Острове равна 12 ч.

Смотрите также архив погоды в соседних городах и на ближайших метеорологических станциях:

Погода в Раучуе (Чукотка, Россия) (72 км)
Погода в Певеке (Чукотка, Россия) (92 км)
Погода в Валькаркае (Чукотка, Россия) (115 км)
Погода в 21 км (Чукотка, Россия) (117 км)
Погода в Чауне (Чукотка, Россия) (160 км)
Погода в Комсомольской (Чукотка, Россия) (211 км)
Погода в Билибино (Чукотка, Россия) (217 км)
Погода в Бухте Амбарчик (Чукотка, Россия) (218 км)
Погода на Островном (Чукотка, Россия) (252 км)
Погода в Паляваам-Глубокой (Чукотка, Россия) (257 км)

Пояснения к столбцам:

Ветер - указаны скорость ветра в м/с - средняя за 10 мин, порывы в срок и между сроками (в фигурных скобках) и направление, откуда дует ветер: С - северный, СВ - северо-восточный, В - восточный, ЮВ - юго-восточный, Ю - южный, ЮЗ - юго-западный, З - западный, СЗ - северо-западный.
Видимость - горизонтальная дальность видимости в метрах или километрах. При видимости от 1 до 10 км при отсутствии осадков обычно наблюдается дымка, при ухудшении видимости до 1 км и менее - туман. В сухую погоду видимость может ухудшаться дымом, пылью или мглою.
Явления - указаны атмосферные явления, наблюдавшиеся в срок или в последний час перед сроком; фигурными скобками обозначены явления, наблюдавшиеся между сроками (за 1-3 часа до срока); квадратными скобками обозначены град или гололедные отложения с указанием их диаметра в мм.
Облачность - указаны через наклонную черту общая и нижняя облачность в баллах и высота нижней границы облаков в метрах; квадратными скобками обозначены формы облаков: Ci - перистые, Cs - перисто-слоистые, Cc - перисто-кучевые, Ac - высококучевые, As - высокослоистые, Sc - слоисто-кучевые, Ns - слоисто-дождевые, Cu - кучевые, Cb - кучево-дождевые. Подробнее классификацию облаков см. в Атласе облаков (PDF).
T - Температура воздуха - температура, измеренная на высоте 2 м над землей.
Td - Температура точки росы - температура, при понижении до которой содержащийся в воздухе водяной пар достигнет насыщения.
f - Относительная влажность воздуха - влажноcть воздуха, измеренная на высоте 2 м над землей.
Te - Эффективная температура - температура, которую ощущает одетый по сезону человек в тени. Характеристика душности погоды. При расчете учитывается влияние влажности воздуха и скорости ветра на теплоощущения человека.
Tes - Эффективная температура на солнце - температура, которую ощущает человек, с поправкой на солнечный нагрев. Характеристика знойности погоды. Зависит от высоты солнца над горизонтом, облачности и скорости ветра. Ночью, в пасмурную погоду, а также при ветре 12 м/с и более поправка равна нулю.
P - Атмосферное давление - приведенное к уровню моря атмосферное давление.
Po - Атмосферное давление - измеренное на уровне метеостанции атмосферное давление.
Tmin - Минимальная температура - минимум температуры воздуха на высоте 2 м над землей.
Tmax - Максимальная температура - максимум температуры воздуха на высоте 2 м над землей.
R - Количество осадков - Количество выпавших осадков за период времени, мм. При наведении курсора мыши на число - период времени, за который выпало указанное количество осадков.
R24 - Количество осадков - Количество выпавших осадков за 24 часа, мм.
S - Снежный покров - Высота снежного покрова, см. При наведении курсора мыши на число - состояние снежного покрова и степень покрытия местности в баллах.